Location: ČR
(50.0000°N, 15.0000°E)
Time: 07:01:06
(UTC+02:00)

A-11 Canister half - Pass Details

Date: 24 March 2026
Orbit: 1514 x 1685 km, 47.2° (Epoch: 18 April)

Event Time Altitude Azimuth Distance (km) Brightness Sun altitude
Rises 14:37:18 0° 267° (W) 4,840 12.3 31.9°
Reaches altitude 10° 14:40:23 10° 266° (W) 3,874 12.0 31.6°
Maximum altitude 14:50:20 77° 183° (S) 1,709 10.0 30.4°
Drops below altitude 10° 15:00:29 10° 99° (E) 3,949 10.9 29.1°
Sets 15:03:40 0° 99° (E) 4,937 11.3 28.7°
